FW4212 Weather Reports


time (UTC)temp
C
wind
direction
speed
KPH
gust
KPH
rain 1hr
cm
rain 24hr
cm
rain mn
cm
humidity
%
barometer
mb
20260508165028 19 249 1.6 12.9 0.00 0.00 0.00 38 1018.4
20260508164527 19 198 3.2 12.9 0.00 0.00 0.00 44 1018.4
20260508164027 18 258 3.2 9.7 0.00 0.00 0.00 31 1018.6
20260508163526 18 135 4.8 9.7 0.00 0.00 0.00 32 1018.6
20260508163027 18 131 4.8 8.0 0.00 0.00 0.00 33 1018.6
20260508162527 18 246 1.6 8.0 0.00 0.00 0.00 35 1018.7
20260508162025 18 327 0.0 6.4 0.00 0.00 0.00 38 1018.8
20260508161526 18 61 0.0 4.8 0.00 0.00 0.00 43 1018.9
20260508161025 18 206 0.0 8.0 0.00 0.00 0.00 38 1018.9
20260508160524 17 117 3.2 11.3 0.00 0.00 0.00 39 1019.1
20260508160024 17 101 4.8 11.3 0.00 0.00 0.00 35 1019.2
20260508155524 17 107 3.2 11.3 0.00 0.00 0.00 33 1019.3
20260508155023 17 105 4.8 11.3 0.00 0.00 0.00 39 1019.4
20260508154523 17 148 1.6 9.7 0.00 0.00 0.00 38 1019.4
20260508154022 17 92 4.8 9.7 0.00 0.00 0.00 38 1019.4
20260508153521 17 112 0.0 4.8 0.00 0.00 0.00 43 1019.4
20260508153122 17 190 1.6 6.4 0.00 0.00 0.00 44 1019.4
20260508152522 17 132 0.0 11.3 0.00 0.00 0.00 45 1019.4
20260508152019 17 210 3.2 11.3 0.00 0.00 0.00 45 1019.4
20260508151527 17 196 1.6 6.4 0.00 0.00 0.00 51 1019.4
20260508151020 17 351 1.6 4.8 0.00 0.00 0.00 52 1019.5
20260508150517 17 254 0.0 4.8 0.00 0.00 0.00 54 1019.5
20260508150027 17 205 0.0 6.4 0.00 0.00 0.00 52 1019.6
20260508145516 16 298 3.2 11.3 0.00 0.00 0.00 52 1019.6
20260508145014 16 236 3.2 11.3 0.00 0.00 0.00 53 1019.7
20260508144515 16 205 3.2 9.7 0.00 0.00 0.00 51 1019.6
20260508144016 16 248 3.2 9.7 0.00 0.00 0.00 53 1019.7
20260508143516 15 91 1.6 8.0 0.00 0.00 0.00 53 1019.7
20260508143014 16 225 1.6 8.0 0.00 0.00 0.00 52 1019.7
20260508142513 16 225 1.6 6.4 0.00 0.00 0.00 52 1019.6
20260508142012 15 126 1.6 6.4 0.00 0.00 0.00 53 1019.7
20260508141512 16 343 1.6 6.4 0.00 0.00 0.00 51 1019.8
20260508141011 16 267 0.0 4.8 0.00 0.00 0.00 60 1019.8
20260508140511 15 14 0.0 0.0 0.00 0.00 0.00 58 1019.7
20260508140008 15 298 0.0 3.2 0.00 0.00 0.00 60 1019.7
20260508135509 15 231 0.0 4.8 0.00 0.00 0.00 58 1019.7
20260508135007 15 303 0.0 6.4 0.00 0.00 0.00 56 1019.6
20260508134506 15 243 1.6 6.4 0.00 0.00 0.00 55 1019.7
20260508134005 15 290 0.0 1.6 0.00 0.00 0.00 57 1019.6
20260508133507 14 290 0.0 4.8 0.00 0.00 0.00 59 1019.6
20260508133005 14 261 0.0 4.8 0.00 0.00 0.00 58 1019.6
20260508132506 14 78 0.0 3.2 0.00 0.00 0.00 61 1019.6
20260508132002 14 202 0.0 4.8 0.00 0.00 0.00 59 1019.6
20260508131504 13 266 0.0 4.8 0.00 0.00 0.00 61 1019.6
20260508131101 13 273 0.0 4.8 0.00 0.00 0.00 68 1019.5
20260508130559 13 265 1.6 4.8 0.00 0.00 0.00 65 1019.4
20260508130058 13 252 0.0 4.8 0.00 0.00 0.00 65 1019.4
20260508125557 13 212 0.0 4.8 0.00 0.10 0.00 71 1019.4
20260508125056 12 320 0.0 1.6 0.00 0.10 0.00 78 1019.5
20260508124600 12 276 0.0 3.2 0.00 0.10 0.00 75 1019.3
20260508124054 12 262 0.0 1.6 0.00 0.10 0.00 78 1019.4
20260508123552 12 262 0.0 0.0 0.00 0.10 0.00 79 1019.4
20260508123052 11 262 0.0 0.0 0.00 0.10 0.00 83 1019.4
20260508122550 11 262 0.0 1.6 0.00 0.10 0.00 87 1019.3
20260508122048 10 242 0.0 1.6 0.00 0.10 0.00 89 1019.2
20260508121548 10 249 0.0 0.0 0.00 0.10 0.00 89 1019.3
20260508121047 9 249 0.0 0.0 0.00 0.10 0.00 92 1019.2
20260508120547 9 225 0.0 3.2 0.00 0.10 0.00 94 1019.0
20260508120045 8 221 0.0 3.2 0.00 0.10 0.00 95 1018.9
20260508115544 8 225 0.0 0.0 0.00 0.43 0.00 96 1018.8
20260508115043 7 225 0.0 0.0 0.00 0.43 0.00 96 1018.9
20260508114543 7 226 0.0 0.0 0.00 0.43 0.00 96 1018.8
20260508114042 6 219 0.0 0.0 0.00 0.43 0.00 96 1018.6
20260508113542 6 219 0.0 0.0 0.00 0.43 0.00 96 1018.5
20260508113050 6 219 0.0 0.0 0.00 0.43 0.00 96 1018.3
20260508112541 6 219 0.0 0.0 0.00 0.43 0.00 96 1018.3
20260508112040 6 199 0.0 0.0 0.00 0.43 0.00 96 1018.2
20260508111540 6 199 0.0 0.0 0.00 0.43 0.00 96 1018.1
20260508111039 5 197 0.0 0.0 0.00 0.43 0.00 96 1018.1
20260508110539 5 196 0.0 0.0 0.00 0.43 0.00 96 1018.1
20260508110038 5 196 0.0 0.0 0.00 0.43 0.00 96 1018.0
20260508105538 5 196 0.0 0.0 0.00 0.48 0.00 96 1018.1
20260508105037 5 196 0.0 0.0 0.00 0.48 0.00 95 1017.8
20260508104536 5 196 0.0 0.0 0.00 0.48 0.00 95 1017.8
20260508104037 5 196 0.0 0.0 0.00 0.48 0.00 95 1017.6
20260508103535 5 196 0.0 0.0 0.00 0.48 0.00 95 1017.5
20260508103038 5 196 0.0 0.0 0.00 0.48 0.00 95 1017.3
20260508102533 5 196 0.0 0.0 0.00 0.48 0.00 95 1017.3
20260508102032 5 196 0.0 0.0 0.00 0.48 0.00 95 1017.2
20260508101533 5 196 0.0 0.0 0.00 0.48 0.00 95 1017.1
20260508101030 5 196 0.0 0.0 0.00 0.48 0.00 95 1017.0
20260508100529 6 196 0.0 0.0 0.00 0.48 0.00 95 1016.9
20260508100031 6 196 0.0 0.0 0.00 0.48 0.00 95 1017.0
20260508095529 6 196 0.0 0.0 0.00 0.48 0.00 95 1016.9
20260508095029 6 196 0.0 0.0 0.00 0.48 0.00 95 1017.0
20260508094528 6 196 0.0 0.0 0.00 0.48 0.00 95 1016.9
20260508094028 6 196 0.0 0.0 0.00 0.48 0.00 95 1016.8
20260508093528 6 196 0.0 0.0 0.00 0.48 0.00 95 1016.8
20260508093030 6 196 0.0 0.0 0.00 0.48 0.00 95 1016.9
20260508092526 6 196 0.0 0.0 0.00 0.48 0.00 95 1016.8
20260508092026 6 196 0.0 0.0 0.00 0.48 0.00 95 1016.7
20260508091535 6 196 0.0 0.0 0.00 0.48 0.00 95 1016.8
20260508091027 6 192 0.0 0.0 0.00 0.48 0.00 95 1016.7
20260508090525 6 192 0.0 0.0 0.00 0.48 0.00 94 1016.7
20260508090036 6 186 0.0 0.0 0.00 0.48 0.00 95 1016.7
20260508085523 6 59 0.0 0.0 0.00 0.48 0.00 95 1016.6
20260508085022 6 59 0.0 0.0 0.00 0.48 0.00 95 1016.5
20260508084522 6 59 0.0 0.0 0.00 0.48 0.00 95 1016.5
20260508084022 6 59 0.0 0.0 0.00 0.48 0.00 95 1016.5
20260508083521 6 59 0.0 0.0 0.00 0.48 0.00 95 1016.5
20260508083021 6 59 0.0 0.0 0.00 0.48 0.00 95 1016.6
20260508082520 6 59 0.0 0.0 0.00 0.48 0.00 95 1016.4
20260508082019 7 59 0.0 0.0 0.00 0.48 0.00 95 1016.4
20260508081519 7 59 0.0 0.0 0.00 0.48 0.00 95 1016.3
20260508081018 7 59 0.0 0.0 0.00 0.48 0.00 95 1016.3
20260508080518 7 59 0.0 0.0 0.00 0.48 0.00 95 1016.3
20260508080024 7 59 0.0 0.0 0.00 0.48 0.00 94 1016.2
20260508075516 7 59 0.0 0.0 0.00 0.51 0.00 94 1016.1
20260508075016 7 59 0.0 0.0 0.00 0.51 0.00 94 1016.2
20260508074526 7 59 0.0 0.0 0.00 0.51 0.00 94 1016.1
20260508074015 7 59 0.0 0.0 0.00 0.51 0.00 94 1016.1
20260508073515 7 59 0.0 0.0 0.00 0.51 0.00 94 1016.1
20260508073015 7 59 0.0 0.0 0.00 0.51 0.00 94 1016.0
20260508072513 7 59 0.0 0.0 0.00 0.51 0.00 94 1016.0
20260508072013 7 59 0.0 0.0 0.00 0.51 0.00 94 1016.0
20260508071522 7 59 0.0 0.0 0.00 0.51 0.00 94 1015.9
20260508071017 7 59 0.0 0.0 0.00 0.51 0.00 94 1015.9
20260508070517 7 59 0.0 0.0 0.00 0.51 0.00 93 1016.0
20260508070013 7 59 0.0 0.0 0.00 0.51 0.00 93 1015.9
20260508065510 7 59 0.0 0.0 0.00 0.51 0.00 93 1015.7
20260508065012 7 59 0.0 0.0 0.00 0.51 0.00 93 1015.8
20260508064510 7 59 0.0 0.0 0.00 0.51 0.00 93 1015.7
20260508064010 7 59 0.0 0.0 0.00 0.51 0.00 93 1015.7
20260508063509 7 59 0.0 0.0 0.00 0.51 0.00 93 1015.5
20260508063009 7 61 0.0 0.0 0.00 0.51 0.00 92 1015.6
20260508062507 7 105 0.0 0.0 0.00 0.51 0.00 92 1015.6
20260508062007 7 105 0.0 0.0 0.00 0.51 0.00 92 1015.5
20260508061510 7 333 0.0 0.0 0.00 0.51 0.00 92 1015.5
20260508061006 7 333 0.0 0.0 0.00 0.51 0.00 92 1015.4
20260508060505 7 333 0.0 0.0 0.00 0.51 0.00 92 1015.4
20260508060007 8 333 0.0 0.0 0.00 0.51 0.00 92 1015.5
20260508055505 8 333 0.0 0.0 0.00 0.61 0.00 92 1015.6
20260508055005 7 333 0.0 0.0 0.00 0.61 0.00 91 1015.4
20260508054506 7 333 0.0 0.0 0.00 0.61 0.00 91 1015.4
20260508054005 8 333 0.0 0.0 0.00 0.61 0.00 90 1015.3
20260508053503 8 333 0.0 0.0 0.00 0.61 0.00 90 1015.4
20260508053003 8 333 0.0 0.0 0.00 0.61 0.00 90 1015.4
20260508052502 8 333 0.0 0.0 0.00 0.61 0.00 89 1015.4
20260508052100 8 333 0.0 0.0 0.00 0.61 0.00 89 1015.3
20260508051600 8 333 0.0 0.0 0.00 0.61 0.00 89 1015.2
20260508051059 8 333 0.0 0.0 0.00 0.61 0.00 88 1015.2
20260508050557 8 333 0.0 0.0 0.00 0.61 0.00 87 1015.2
20260508050056 9 333 0.0 0.0 0.00 0.61 0.00 87 1015.1
20260508045555 9 333 0.0 1.6 0.00 0.71 0.00 86 1015.1
20260508045057 9 333 0.0 1.6 0.00 0.71 0.00 86 1014.9
20260508044554 9 333 0.0 1.6 0.00 0.71 0.00 86 1015.1
20260508044054 9 333 0.0 1.6 0.00 0.71 0.00 85 1015.0
20260508043553 9 333 0.0 0.0 0.00 0.71 0.00 85 1015.0
20260508043106 9 333 0.0 0.0 0.00 0.71 0.00 85 1014.9
20260508042552 9 333 0.0 0.0 0.00 0.71 0.00 84 1015.0
20260508042052 9 333 0.0 0.0 0.00 0.71 0.00 84 1015.0
20260508041552 9 333 0.0 0.0 0.00 0.71 0.00 84 1014.9
20260508041050 10 333 0.0 0.0 0.00 0.71 0.00 82 1015.0
20260508040549 10 333 0.0 0.0 0.00 0.71 0.00 81 1014.9
20260508040050 10 333 0.0 0.0 0.00 0.71 0.00 80 1014.8
20260508035547 10 333 0.0 0.0 0.00 0.76 0.71 79 1014.9
20260508035046 10 333 0.0 0.0 0.00 0.76 0.71 79 1014.9
20260508034546 10 333 0.0 0.0 0.00 0.76 0.71 79 1015.0
20260508034046 10 333 0.0 3.2 0.00 0.76 0.71 79 1014.9
20260508033547 10 313 0.0 1.6 0.00 0.76 0.71 78 1015.0
20260508033044 10 313 0.0 0.0 0.00 0.76 0.71 78 1014.9
20260508032544 11 313 0.0 0.0 0.00 0.76 0.71 77 1014.8
20260508032045 11 313 0.0 1.6 0.00 0.76 0.71 76 1014.9
20260508031541 11 313 0.0 1.6 0.00 0.76 0.71 75 1014.8
20260508031040 11 313 0.0 0.0 0.00 0.76 0.71 74 1014.8
20260508030539 11 313 0.0 0.0 0.00 0.76 0.71 72 1014.7
20260508030044 12 313 0.0 0.0 0.00 0.76 0.71 72 1014.8
20260508025536 12 313 0.0 1.6 0.00 0.84 0.71 70 1014.7
20260508025035 12 313 0.0 4.8 0.00 0.84 0.71 70 1014.6
20260508024538 12 324 0.0 4.8 0.00 0.84 0.71 70 1014.4
20260508024034 12 264 0.0 4.8 0.00 0.84 0.71 69 1014.3
20260508023534 12 281 0.0 4.8 0.00 0.84 0.71 71 1014.2
20260508023034 12 281 1.6 8.0 0.00 0.84 0.71 71 1014.2
20260508022533 12 284 1.6 4.8 0.00 0.84 0.71 69 1014.3
20260508022033 12 245 1.6 4.8 0.00 0.84 0.71 69 1014.3
20260508021539 13 277 0.0 8.0 0.00 0.84 0.71 68 1014.1
20260508021033 13 279 3.2 8.0 0.00 0.84 0.71 68 1014.1
20260508020529 13 311 0.0 3.2 0.00 0.84 0.71 67 1013.9
20260508020029 13 311 0.0 4.8 0.00 0.84 0.71 68 1013.8
20260508015528 13 311 0.0 8.0 0.00 0.94 0.71 69 1013.7
20260508015028 13 304 3.2 8.0 0.00 0.94 0.71 68 1013.6
20260508014528 13 287 1.6 6.4 0.00 0.94 0.71 68 1013.5
20260508014027 13 311 1.6 9.7 0.00 0.94 0.71 67 1013.4
20260508013527 13 306 3.2 17.7 0.00 0.94 0.71 66 1013.4
20260508013037 13 306 1.6 11.3 0.00 0.94 0.71 68 1013.4
20260508012527 13 314 1.6 11.3 0.00 0.94 0.71 67 1013.4
20260508012027 13 317 1.6 6.4 0.00 0.94 0.71 68 1013.4
20260508011527 13 335 3.2 12.9 0.00 0.94 0.71 67 1013.2
20260508011029 13 280 1.6 12.9 0.00 0.94 0.71 66 1013.1
20260508010525 13 273 1.6 11.3 0.00 0.94 0.71 67 1012.9
20260508010025 13 297 1.6 11.3 0.00 0.94 0.71 67 1012.9
20260508005527 13 316 0.0 11.3 0.00 1.17 0.71 66 1012.8
20260508005026 13 310 3.2 14.5 0.00 1.17 0.71 65 1012.7
20260508004535 13 279 1.6 11.3 0.00 1.17 0.71 66 1012.7
20260508004023 13 316 1.6 9.7 0.00 1.17 0.71 67 1012.6
20260508003522 13 338 3.2 9.7 0.00 1.17 0.71 67 1012.5
20260508003024 14 313 1.6 11.3 0.00 1.17 0.71 68 1012.4
20260508002521 14 251 3.2 12.9 0.00 1.17 0.71 66 1012.4
20260508002020 14 292 3.2 12.9 0.00 1.17 0.71 66 1012.5
20260508001519 14 350 3.2 17.7 0.00 1.17 0.71 66 1012.4
20260508001018 14 275 3.2 12.9 0.00 1.17 0.71 63 1012.5
20260508000517 15 319 1.6 11.3 0.00 1.17 0.71 65 1012.5
20260508000016 15 291 1.6 11.3 0.00 1.17 0.71 65 1012.5
20260507235515 15 231 0.0 11.3 0.00 1.24 0.71 64 1012.3
20260507235017 15 22 3.2 11.3 0.00 1.24 0.71 65 1012.3
20260507234514 15 306 1.6 6.4 0.00 1.24 0.71 66 1012.3
20260507234013 15 220 1.6 11.3 0.00 1.24 0.71 67 1012.3
20260507233512 15 13 1.6 8.0 0.00 1.24 0.71 67 1012.1
20260507233020 16 22 1.6 8.0 0.00 1.24 0.71 64 1012.0
20260507232512 16 238 1.6 9.7 0.00 1.24 0.71 65 1011.9
20260507232012 16 344 3.2 11.3 0.00 1.24 0.71 65 1011.9
20260507231511 16 35 0.0 6.4 0.00 1.24 0.71 64 1012.0
20260507231012 16 101 1.6 12.9 0.00 1.24 0.71 63 1011.9
20260507230510 17 39 1.6 6.4 0.00 1.24 0.71 65 1011.7
20260507230010 17 300 1.6 8.0 0.00 1.24 0.71 66 1011.8
20260507225509 17 288 1.6 6.4 0.00 1.27 0.71 66 1011.5
20260507225009 17 19 0.0 6.4 0.00 1.27 0.71 64 1011.3
20260507224509 17 322 0.0 8.0 0.00 1.27 0.71 65 1011.3
20260507224010 17 355 1.6 8.0 0.00 1.27 0.71 64 1011.0
20260507223509 17 105 1.6 9.7 0.00 1.27 0.71 62 1011.0
20260507223009 18 297 1.6 9.7 0.00 1.27 0.71 64 1010.8
20260507222508 18 22 3.2 6.4 0.00 1.27 0.71 62 1010.7
20260507222007 18 355 1.6 8.0 0.00 1.27 0.71 63 1010.8
20260507221515 19 355 3.2 8.0 0.00 1.27 0.71 62 1010.7
20260507221010 20 330 1.6 6.4 0.00 1.27 0.71 65 1010.3
20260507220507 20 324 1.6 17.7 0.00 1.27 0.71 58 1010.1
20260507220010 21 273 3.2 17.7 0.00 1.27 0.71 57 1010.0
20260507215506 21 210 3.2 17.7 0.00 1.27 0.71 56 1009.9
20260507215006 21 211 4.8 17.7 0.00 1.27 0.71 55 1009.8
20260507214509 21 259 3.2 14.5 0.00 1.27 0.71 56 1009.6
20260507214008 21 69 4.8 14.5 0.00 1.27 0.71 55 1009.7
20260507213509 21 296 1.6 14.5 0.00 1.27 0.71 58 1009.6
20260507213005 21 355 1.6 14.5 0.00 1.27 0.71 59 1009.4
20260507212504 21 36 0.0 14.5 0.00 1.27 0.71 60 1009.2
20260507212005 21 327 1.6 16.1 0.00 1.27 0.71 63 1009.1
20260507211505 21 281 3.2 16.1 0.00 1.27 0.71 57 1009.0
20260507211004 21 219 1.6 16.1 0.00 1.27 0.71 59 1008.9
20260507210503 22 276 4.8 14.5 0.00 1.27 0.71 59 1009.1
20260507210009 22 293 1.6 17.7 0.00 1.27 0.71 61 1008.9
20260507205503 22 264 6.4 24.1 0.00 1.27 0.71 56 1008.8
20260507205004 22 276 6.4 24.1 0.00 1.27 0.71 56 1008.9
20260507204503 23 296 8.0 19.3 0.00 1.27 0.71 58 1008.8
20260507204003 23 346 3.2 14.5 0.00 1.27 0.71 64 1008.7
20260507203503 23 270 1.6 16.1 0.00 1.27 0.71 63 1008.6
20260507203002 23 294 6.4 17.7 0.00 1.27 0.71 56 1008.6
20260507202503 23 325 1.6 14.5 0.00 1.27 0.71 61 1008.4
20260507202001 23 321 3.2 9.7 0.00 1.27 0.71 58 1008.5
20260507201507 24 69 3.2 14.5 0.00 1.27 0.71 65 1008.5
20260507201002 24 305 4.8 14.5 0.00 1.27 0.71 61 1008.5
20260507200500 24 304 3.2 14.5 0.00 1.27 0.71 59 1008.2
20260507200001 24 231 1.6 11.3 0.00 1.27 0.71 65 1008.2
20260507195600 23 286 1.6 14.5 0.00 1.27 0.71 65 1008.1
20260507195103 23 247 3.2 14.5 0.00 1.27 0.71 61 1008.2
20260507194635 24 347 1.6 14.5 0.00 1.27 0.71 56 1008.1
20260507194059 24 288 4.8 16.1 0.00 1.27 0.71 59 1008.1
20260507193558 24 306 3.2 12.9 0.00 1.27 0.71 60 1008.2
20260507193058 25 296 1.6 11.3 0.00 1.27 0.71 65 1008.2
20260507192556 24 82 1.6 11.3 0.00 1.27 0.71 62 1008.1
20260507192056 24 314 3.2 8.0 0.00 1.27 0.71 64 1008.2
20260507191555 24 355 1.6 8.0 0.00 1.27 0.71 71 1008.3
20260507191053 22 15 1.6 8.0 0.00 1.27 0.71 74 1008.4
20260507190553 22 5 0.0 8.0 0.00 1.27 0.71 68 1008.3
20260507190053 23 290 0.0 6.4 0.00 1.27 0.71 70 1008.3
20260507185552 23 329 1.6 6.4 0.00 1.27 0.71 75 1008.5
20260507185052 23 346 1.6 8.0 0.00 1.27 0.71 69 1008.4
20260507184603 23 355 3.2 8.0 0.00 1.27 0.71 71 1008.4
20260507184051 23 302 0.0 14.5 0.00 1.27 0.71 72 1008.5
20260507183550 23 199 1.6 14.5 0.00 1.27 0.71 71 1008.5
20260507183050 23 213 1.6 11.3 0.00 1.27 0.71 66 1008.5
20260507182548 23 234 3.2 9.7 0.00 1.27 0.71 70 1008.6
20260507182047 23 175 3.2 9.7 0.00 1.27 0.71 66 1008.7
20260507181545 23 239 3.2 11.3 0.00 1.27 0.71 70 1008.7
20260507181044 22 263 0.0 6.4 0.00 1.27 0.71 73 1008.7
20260507180548 22 289 1.6 8.0 0.00 1.27 0.71 73 1008.7
20260507180044 22 265 0.0 8.0 0.00 1.27 0.71 72 1008.6
20260507175545 22 178 0.0 4.8 0.00 1.27 0.71 68 1008.7
20260507175044 23 126 1.6 4.8 0.00 1.27 0.71 69 1008.7
20260507174548 23 263 1.6 8.0 0.00 1.27 0.71 72 1008.7
20260507174042 22 226 0.0 8.0 0.00 1.27 0.71 72 1008.8
20260507173541 23 78 3.2 9.7 0.00 1.27 0.71 73 1008.8
20260507173041 23 214 3.2 14.5 0.00 1.27 0.71 73 1008.8
20260507172539 22 127 6.4 14.5 0.00 1.27 0.71 73 1008.7
20260507172038 22 175 0.0 4.8 0.00 1.27 0.71 75 1008.7
20260507171545 22 219 0.0 4.8 0.00 1.27 0.71 74 1008.9
20260507171037 22 209 1.6 8.0 0.00 1.27 0.71 77 1009.0
20260507170535 22 113 3.2 8.0 0.00 1.27 0.71 77 1009.0
20260507170039 22 217 1.6 11.3 0.00 1.27 0.71 80 1009.0
20260507165534 22 280 1.6 11.3 0.00 1.35 0.71 77 1009.2